This is the latest recevied weather packets stored in our database for station/object SQ9MHX-13. If no packets are shown the sender has not sent any weather packets the latest 10 day(s).
| Time | Temp. | Humidity | Pressure | Rain* | Wind** | Luminosity | Snow |
|---|---|---|---|---|---|---|---|
| 1778091979 | 16.11° C | 68% | 954.7 hPa | - | 0 m/s | - | - |
| 1778091680 | 16.11° C | 68% | 954.4 hPa | - | 0 m/s | - | - |
| 1778091382 | 17.22° C | 66% | 954.3 hPa | - | 0 m/s | - | - |
| 1778091083 | 17.22° C | 66% | 954 hPa | - | 0 m/s | - | - |
| 1778090784 | 17.22° C | 65% | 953.9 hPa | - | 0 m/s | - | - |
| 1778090486 | 17.22° C | 65% | 953.8 hPa | - | 0 m/s | - | - |
| 1778090187 | 17.22° C | 65% | 953.2 hPa | - | 0 m/s | - | - |
| 1778089888 | 17.22° C | 62% | 952.6 hPa | - | 0 m/s | - | - |
| 1778089589 | 17.78° C | 60% | 952.2 hPa | - | 0 m/s | - | - |
| 1778089290 | 17.78° C | 62% | 952.2 hPa | - | 0 m/s | - | - |
| 1778088693 | 17.78° C | 61% | 951.9 hPa | - | 0 m/s | - | - |
| 1778088394 | 17.78° C | 59% | 951.5 hPa | - | 0 m/s | - | - |
| 1778088095 | 17.78° C | 58% | 951.1 hPa | - | 0 m/s | - | - |
| 1778087796 | 18.89° C | 56% | 950.9 hPa | - | 0 m/s | - | - |
| 1778087498 | 18.89° C | 55% | 950.7 hPa | - | 0 m/s | - | - |
| 1778086601 | 18.89° C | 48% | 949.7 hPa | - | 0 m/s | - | - |
| 1778086302 | 18.89° C | 49% | 949.8 hPa | - | 0 m/s | - | - |
| 1778086003 | 18.89° C | 48% | 949.6 hPa | - | 0 m/s | - | - |
| 1778085405 | 20° C | 46% | 948.8 hPa | - | 0 m/s | - | - |
| 1778085106 | 20° C | 45% | 947.6 hPa | - | 0 m/s | - | - |
| 1778084807 | 21.11° C | 45% | 946.7 hPa | - | 0 m/s | - | - |
| 1778084508 | 22.22° C | 45% | 945.6 hPa | - | 0 m/s | - | - |
| 1778084209 | 22.22° C | 42% | 944.5 hPa | - | 0 m/s | - | - |
| 1778083910 | 22.78° C | 44% | 943.8 hPa | - | 0 m/s | - | - |
| 1778083611 | 22.78° C | 40% | 943.6 hPa | - | 0 m/s | - | - |
* Rain since midnight (hover to see other rain measurements)
** Current wind speed in m/s (hover to see current wind gust speed)